Location: Newark
(49.8969°N, 3.3422°E)
Time: 06:00:33
(UTC+00:00)

Tiros 1 - Pass Details

Date: 22 January 2021
Orbit: 630 x 664 km, 48.4° (Epoch: 06 March)

Event Time Altitude Azimuth Distance (km) Brightness Sun altitude
Rises 20:25:15 0° 258° (WSW) 2,919 11.2 -38.2°
Reaches altitude 10° 20:27:34 10° 256° (WSW) 2,009 10.2 -38.5°
Enters shadow 20:27:40 11° 256° (WSW) 1,976 10.2 -38.6°
